When you browse on this site, cookies collect data to enhance your experience and personalize the content and advertising you see.
Visit our Privacy Policy to learn more. By continuing to use the site, you agree to this use of cookies and data.
  • In France
  • List of Countries
  • For 7 days
  • Water Temperature
  • Satellite Maps
  • Weather Map
  • Weather Widgets
  • user-avatar
    Login

    Hourly Weather Gjirokaster

    Today, 16 February, Saturday

    Time Temperature Precipitation Wind Pressure Humidity
    00:00 -5°C° 0 mm 2 mps 654 mmHg 69%
    01:00 -5°C° 0 mm 2 mps 654 mmHg 70%
    02:00 -5°C° 0 mm 2 mps 654 mmHg 69%
    03:00 -5°C° 0 mm 2 mps 654 mmHg 69%
    04:00 -5°C° 0 mm 2 mps 654 mmHg 68%
    05:00 -5°C° 0 mm 2 mps 654 mmHg 67%
    06:00 -5°C° 0 mm 2 mps 654 mmHg 66%
    07:00 -5°C° 0 mm 2 mps 654 mmHg 65%
    08:00 -3°C° 0 mm 2 mps 655 mmHg 58%
    09:00 -1°C° 0 mm 2 mps 656 mmHg 51%
    10:00 +2°C° 0 mm 2 mps 657 mmHg 43%
    11:00 +3°C° 0 mm 2 mps 657 mmHg 41%
    12:00 +4°C° 0 mm 2 mps 657 mmHg 39%
    13:00 +4°C° 0 mm 2 mps 657 mmHg 37%
    14:00 +4°C° 0 mm 2 mps 657 mmHg 40%
    15:00 +4°C° 0 mm 2 mps 657 mmHg 43%
    16:00 +5°C° 0 mm 1 mps 656 mmHg 45%
    17:00 +3°C° 0 mm 2 mps 656 mmHg 49%
    18:00 +1°C° 0 mm 2 mps 656 mmHg 52%
    19:00 -1°C° 0 mm 2 mps 656 mmHg 56%
    20:00 -2°C° 0 mm 2 mps 656 mmHg 57%
    21:00 -2°C° 0 mm 2 mps 656 mmHg 58%
    22:00 -3°C° 0 mm 2 mps 656 mmHg 60%
    23:00 -3°C° 0 mm 2 mps 656 mmHg 60%

    Tomorrow, 17 February, Sunday

    Time Temperature Precipitation Wind Pressure Humidity
    00:00 -3°C° 0 mm 2 mps 655 mmHg 60%
    01:00 -3°C° 0 mm 2 mps 655 mmHg 60%
    02:00 -3°C° 0 mm 2 mps 655 mmHg 59%
    03:00 -3°C° 0 mm 2 mps 655 mmHg 58%
    04:00 -3°C° 0 mm 2 mps 655 mmHg 57%
    05:00 -3°C° 0 mm 2 mps 655 mmHg 55%
    06:00 -3°C° 0 mm 2 mps 655 mmHg 54%
    07:00 -1°C° 0 mm 1 mps 655 mmHg 53%
    08:00 +1°C° 0 mm 1 mps 656 mmHg 47%
    09:00 +3°C° 0 mm 1 mps 656 mmHg 41%
    10:00 +5°C° 0 mm 0 mps 657 mmHg 36%
    11:00 +6°C° 0 mm 1 mps 657 mmHg 35%
    12:00 +7°C° 0 mm 1 mps 657 mmHg 34%
    13:00 +7°C° 0 mm 2 mps 657 mmHg 34%
    14:00 +7°C° 0 mm 2 mps 657 mmHg 38%
    15:00 +6°C° 0 mm 2 mps 656 mmHg 43%
    16:00 +6°C° 0 mm 2 mps 656 mmHg 47%
    17:00 +5°C° 0 mm 2 mps 656 mmHg 51%
    18:00 +3°C° 0 mm 2 mps 655 mmHg 55%
    19:00 +2°C° 0 mm 1 mps 655 mmHg 59%
    20:00 +2°C° 0 mm 1 mps 655 mmHg 59%
    21:00 +2°C° 0 mm 1 mps 655 mmHg 59%
    22:00 +2°C° 0 mm 1 mps 655 mmHg 58%
    23:00 +1°C° 0 mm 1 mps 655 mmHg 57%

    Day after tomorrow, 18 February, Monday

    Time Temperature Precipitation Wind Pressure Humidity
    00:00 +1°C° 0 mm 1 mps 655 mmHg 57%
    01:00 +1°C° 0 mm 1 mps 654 mmHg 56%
    02:00 +1°C° 0 mm 1 mps 654 mmHg 56%
    03:00 +1°C° 0 mm 1 mps 654 mmHg 55%
    04:00 0°C° 0 mm 1 mps 654 mmHg 55%
    05:00 0°C° 0 mm 1 mps 654 mmHg 55%
    06:00 0°C° 0 mm 1 mps 654 mmHg 54%
    07:00 0°C° 0 mm 1 mps 654 mmHg 54%
    08:00 +2°C° 0 mm 1 mps 654 mmHg 50%
    09:00 +4°C° 0 mm 1 mps 655 mmHg 46%
    10:00 +6°C° 0 mm 1 mps 656 mmHg 42%
    11:00 +7°C° 0 mm 1 mps 656 mmHg 42%
    12:00 +8°C° 0 mm 1 mps 656 mmHg 42%
    13:00 +8°C° 0 mm 2 mps 656 mmHg 42%
    14:00 +8°C° 0 mm 1 mps 656 mmHg 45%
    15:00 +8°C° 0 mm 1 mps 655 mmHg 49%
    16:00 +8°C° 0 mm 1 mps 655 mmHg 52%
    17:00 +6°C° 0 mm 1 mps 655 mmHg 59%
    18:00 +5°C° 0 mm 1 mps 654 mmHg 66%
    19:00 +3°C° 0 mm 1 mps 654 mmHg 73%
    20:00 +3°C° 0 mm 1 mps 654 mmHg 74%
    21:00 +2°C° 0 mm 0 mps 654 mmHg 75%
    22:00 +1°C° 0 mm 0 mps 654 mmHg 76%
    23:00 +1°C° 0 mm 0 mps 654 mmHg 76%

    19 February, Tuesday

    Time Temperature Precipitation Wind Pressure Humidity
    00:00 +1°C° 0 mm 0 mps 654 mmHg 76%
    01:00 0°C° 0 mm 0 mps 654 mmHg 77%
    02:00 0°C° 0 mm 0 mps 654 mmHg 77%
    03:00 0°C° 0 mm 0 mps 654 mmHg 78%
    04:00 +1°C° 0 mm 1 mps 654 mmHg 78%
    05:00 +1°C° 0 mm 1 mps 654 mmHg 78%
    06:00 +1°C° 0 mm 1 mps 654 mmHg 77%
    07:00 +1°C° 0 mm 1 mps 654 mmHg 77%
    08:00 +3°C° 0 mm 1 mps 655 mmHg 70%
    09:00 +4°C° 0 mm 1 mps 655 mmHg 64%
    10:00 +6°C° 0 mm 1 mps 656 mmHg 58%
    11:00 +7°C° 0 mm 1 mps 656 mmHg 55%
    12:00 +8°C° 0 mm 1 mps 656 mmHg 53%
    13:00 +7°C° 0 mm 2 mps 656 mmHg 51%
    14:00 +7°C° 0 mm 2 mps 656 mmHg 54%
    15:00 +7°C° 0 mm 2 mps 656 mmHg 57%
    16:00 +7°C° 0 mm 1 mps 655 mmHg 61%
    17:00 +6°C° 0 mm 1 mps 655 mmHg 68%
    18:00 +5°C° 0 mm 1 mps 655 mmHg 76%
    19:00 +3°C° 0 mm 1 mps 655 mmHg 84%
    20:00 +2°C° 0 mm 0 mps 655 mmHg 85%
    21:00 +1°C° 0 mm 0 mps 655 mmHg 86%
    22:00 +1°C° 0 mm 0 mps 655 mmHg 88%
    23:00 +1°C° 0 mm 0 mps 655 mmHg 88%

    20 February, Wednesday

    Time Temperature Precipitation Wind Pressure Humidity
    00:00 +1°C° 0 mm 0 mps 655 mmHg 88%
    01:00 0°C° 0 mm 0 mps 654 mmHg 89%
    02:00 0°C° 0 mm 0 mps 654 mmHg 89%
    03:00 0°C° 0 mm 0 mps 654 mmHg 89%
    04:00 +1°C° 0 mm 1 mps 654 mmHg 89%
    05:00 0°C° 0 mm 1 mps 654 mmHg 88%
    06:00 0°C° 0 mm 1 mps 654 mmHg 87%
    07:00 0°C° 0 mm 1 mps 654 mmHg 85%
    08:00 +2°C° 0 mm 1 mps 655 mmHg 76%
    09:00 +4°C° 0 mm 1 mps 656 mmHg 66%
    10:00 +6°C° 0 mm 1 mps 656 mmHg 57%
    11:00 +7°C° 0 mm 1 mps 656 mmHg 55%
    12:00 +6°C° 0 mm 2 mps 656 mmHg 52%
    13:00 +7°C° 0 mm 2 mps 656 mmHg 50%
    14:00 +7°C° 0 mm 2 mps 656 mmHg 53%
    15:00 +7°C° 0 mm 2 mps 656 mmHg 55%
    16:00 +6°C° 0 mm 2 mps 656 mmHg 58%
    17:00 +5°C° 0 mm 2 mps 656 mmHg 65%
    18:00 +4°C° 0 mm 2 mps 655 mmHg 71%
    19:00 +2°C° 0 mm 2 mps 655 mmHg 78%
    20:00 +3°C° 0 mm 1 mps 655 mmHg 78%
    21:00 +2°C° 0 mm 1 mps 655 mmHg 79%
    22:00 +2°C° 0 mm 1 mps 655 mmHg 79%
    23:00 +2°C° 0 mm 1 mps 655 mmHg 78%

    21 February, Thursday

    Time Temperature Precipitation Wind Pressure Humidity
    00:00 +1°C° 0 mm 1 mps 655 mmHg 77%
    01:00 +1°C° 0 mm 1 mps 655 mmHg 76%
    02:00 +1°C° 0 mm 1 mps 655 mmHg 76%
    03:00 +1°C° 0 mm 1 mps 655 mmHg 75%
    04:00 0°C° 0 mm 1 mps 655 mmHg 74%
    05:00 0°C° 0 mm 1 mps 655 mmHg 73%
    06:00 -2°C° 0 mm 2 mps 655 mmHg 72%
    07:00 -2°C° 0 mm 2 mps 655 mmHg 70%
    08:00 +2°C° 0 mm 1 mps 655 mmHg 62%
    09:00 +5°C° 0 mm 1 mps 656 mmHg 54%
    10:00 +7°C° 0 mm 1 mps 657 mmHg 45%
    11:00 +8°C° 0 mm 1 mps 657 mmHg 43%
    12:00 +8°C° 0 mm 1 mps 657 mmHg 40%
    13:00 +8°C° 0 mm 2 mps 657 mmHg 38%
    14:00 +8°C° 0 mm 2 mps 656 mmHg 42%
    15:00 +8°C° 0 mm 2 mps 656 mmHg 47%
    16:00 +7°C° 0 mm 2 mps 656 mmHg 52%
    17:00 +6°C° 0 mm 2 mps 656 mmHg 61%
    18:00 +4°C° 0 mm 2 mps 655 mmHg 70%
    19:00 +3°C° 0 mm 2 mps 655 mmHg 78%
    20:00 +2°C° 0 mm 2 mps 655 mmHg 78%
    21:00 +3°C° 0 mm 1 mps 655 mmHg 78%
    22:00 +3°C° 0 mm 1 mps 655 mmHg 78%
    23:00 +2°C° 0 mm 1 mps 655 mmHg 77%
    Show more